Year,Month,Day,Hour,Minute,Value (Times are PST for windspeed in km/hr)
2010,04,04,00,00,1.20
2010,04,04,00,01,2.50
2010,04,04,00,02,2.50
2010,04,04,00,03,1.80
2010,04,04,00,04,2.00
2010,04,04,00,05,2.30
2010,04,04,00,06,2.10
2010,04,04,00,07,2.70
2010,04,04,00,08,4.20
2010,04,04,00,09,3.00
2010,04,04,00,10,7.40
2010,04,04,00,11,6.90
2010,04,04,00,12,9.20
2010,04,04,00,13,9.70
2010,04,04,00,14,9.50
2010,04,04,00,15,7.50
2010,04,04,00,16,8.40
2010,04,04,00,17,10.20
2010,04,04,00,18,7.10
2010,04,04,00,19,8.60
2010,04,04,00,20,8.60
2010,04,04,00,21,7.10
2010,04,04,00,22,7.40
2010,04,04,00,23,11.80
2010,04,04,00,24,8.50
2010,04,04,00,25,10.80
2010,04,04,00,26,6.10
2010,04,04,00,27,9.20
2010,04,04,00,28,12.60
2010,04,04,00,29,18.10
2010,04,04,00,30,11.40
2010,04,04,00,31,10.50
2010,04,04,00,32,9.70
2010,04,04,00,33,10.70
2010,04,04,00,34,14.40
2010,04,04,00,35,14.30
2010,04,04,00,36,9.00
2010,04,04,00,37,11.60
2010,04,04,00,38,11.50
2010,04,04,00,39,9.80
2010,04,04,00,40,8.10
2010,04,04,00,41,13.40
2010,04,04,00,42,14.10
2010,04,04,00,43,12.30
2010,04,04,00,44,10.50
2010,04,04,00,45,12.20
2010,04,04,00,46,11.50
2010,04,04,00,47,12.80
2010,04,04,00,48,15.70
2010,04,04,00,49,13.10
2010,04,04,00,50,13.70
2010,04,04,00,51,7.10
2010,04,04,00,52,19.10
2010,04,04,00,53,13.00
2010,04,04,00,54,10.10
2010,04,04,00,55,16.10
2010,04,04,00,56,18.00
2010,04,04,00,57,5.90
2010,04,04,00,58,13.80
2010,04,04,00,59,14.10
2010,04,04,01,00,17.00
2010,04,04,01,01,7.50
2010,04,04,01,02,9.90
2010,04,04,01,03,16.40
2010,04,04,01,04,16.00
2010,04,04,01,05,15.10
2010,04,04,01,06,17.60
2010,04,04,01,07,16.30
2010,04,04,01,08,13.50
2010,04,04,01,09,11.90
2010,04,04,01,10,14.40
2010,04,04,01,11,12.60
2010,04,04,01,12,14.30
2010,04,04,01,13,12.70
2010,04,04,01,14,10.80
2010,04,04,01,15,20.70
2010,04,04,01,16,18.20
2010,04,04,01,17,13.70
2010,04,04,01,18,20.50
2010,04,04,01,19,19.90
2010,04,04,01,20,14.20
2010,04,04,01,21,9.90
2010,04,04,01,22,16.30
2010,04,04,01,23,18.50
2010,04,04,01,24,18.90
2010,04,04,01,25,19.20
2010,04,04,01,26,19.20
2010,04,04,01,27,18.50
2010,04,04,01,28,14.70
2010,04,04,01,29,15.50
2010,04,04,01,30,17.80
2010,04,04,01,31,11.30
2010,04,04,01,32,13.50
2010,04,04,01,33,20.30
2010,04,04,01,34,18.40
2010,04,04,01,35,21.10
2010,04,04,01,36,19.50
2010,04,04,01,37,19.80
2010,04,04,01,38,14.10
2010,04,04,01,39,14.00
2010,04,04,01,40,23.00
2010,04,04,01,41,16.60
2010,04,04,01,42,14.20
2010,04,04,01,43,13.20
2010,04,04,01,44,16.20
2010,04,04,01,45,18.20
2010,04,04,01,46,12.10
2010,04,04,01,47,18.10
2010,04,04,01,48,20.60
2010,04,04,01,49,26.30
2010,04,04,01,50,21.80
2010,04,04,01,51,23.70
2010,04,04,01,52,15.00
2010,04,04,01,53,16.90
2010,04,04,01,54,14.70
2010,04,04,01,55,25.30
2010,04,04,01,56,24.80
2010,04,04,01,57,18.80
2010,04,04,01,58,20.30
2010,04,04,01,59,22.10
2010,04,04,02,00,15.50
2010,04,04,02,01,14.10
2010,04,04,02,02,20.00
2010,04,04,02,03,19.20
2010,04,04,02,04,20.80
2010,04,04,02,05,18.90
2010,04,04,02,06,16.40
2010,04,04,02,07,24.50
2010,04,04,02,08,23.50
2010,04,04,02,09,20.40
2010,04,04,02,10,18.30
2010,04,04,02,11,16.80
2010,04,04,02,12,17.20
2010,04,04,02,13,24.20
2010,04,04,02,14,21.50
2010,04,04,02,15,19.30
2010,04,04,02,16,17.50
2010,04,04,02,17,12.50
2010,04,04,02,18,25.10
2010,04,04,02,19,23.60
2010,04,04,02,20,22.20
2010,04,04,02,21,20.50
2010,04,04,02,22,24.10
2010,04,04,02,23,19.10
2010,04,04,02,24,20.60
2010,04,04,02,25,16.70
2010,04,04,02,26,16.20
2010,04,04,02,27,19.00
2010,04,04,02,28,12.70
2010,04,04,02,29,26.00
2010,04,04,02,30,22.90
2010,04,04,02,31,23.30
2010,04,04,02,32,21.60
2010,04,04,02,33,22.00
2010,04,04,02,34,16.20
2010,04,04,02,35,19.00
2010,04,04,02,36,19.40
2010,04,04,02,37,22.20
2010,04,04,02,38,18.00
2010,04,04,02,39,23.00
2010,04,04,02,40,15.10
2010,04,04,02,41,20.30
2010,04,04,02,42,23.60
2010,04,04,02,43,14.10
2010,04,04,02,44,20.60
2010,04,04,02,45,21.20
2010,04,04,02,46,19.70
2010,04,04,02,47,20.80
2010,04,04,02,48,20.40
2010,04,04,02,49,21.60
2010,04,04,02,50,15.80
2010,04,04,02,51,16.80
2010,04,04,02,52,16.20
2010,04,04,02,53,23.20
2010,04,04,02,54,24.80
2010,04,04,02,55,21.30
2010,04,04,02,56,24.80
2010,04,04,02,57,23.90
2010,04,04,02,58,18.00
2010,04,04,02,59,18.70
2010,04,04,03,00,20.90
2010,04,04,03,01,21.50
2010,04,04,03,02,20.10
2010,04,04,03,03,17.40
2010,04,04,03,04,21.10
2010,04,04,03,05,20.20
2010,04,04,03,06,22.20
2010,04,04,03,07,19.40
2010,04,04,03,08,15.90
2010,04,04,03,09,17.10
2010,04,04,03,10,24.10
2010,04,04,03,11,19.20
2010,04,04,03,12,22.90
2010,04,04,03,13,25.10
2010,04,04,03,14,23.90
2010,04,04,03,15,22.40
2010,04,04,03,16,8.80
2010,04,04,03,17,12.70
2010,04,04,03,18,17.80
2010,04,04,03,19,10.10
2010,04,04,03,20,15.50
2010,04,04,03,21,19.60
2010,04,04,03,22,18.10
2010,04,04,03,23,18.50
2010,04,04,03,24,19.40
2010,04,04,03,25,16.80
2010,04,04,03,26,22.20
2010,04,04,03,27,18.80
2010,04,04,03,28,17.60
2010,04,04,03,29,27.60
2010,04,04,03,30,22.00
2010,04,04,03,31,20.50
2010,04,04,03,32,21.10
2010,04,04,03,33,20.30
2010,04,04,03,34,20.70
2010,04,04,03,35,22.10
2010,04,04,03,36,23.70
2010,04,04,03,37,24.10
2010,04,04,03,38,21.70
2010,04,04,03,39,24.10
2010,04,04,03,40,19.60
2010,04,04,03,41,18.70
2010,04,04,03,42,18.30
2010,04,04,03,43,23.30
2010,04,04,03,44,17.70
2010,04,04,03,45,18.00
2010,04,04,03,46,21.70
2010,04,04,03,47,16.50
2010,04,04,03,48,17.60
2010,04,04,03,49,21.80
2010,04,04,03,50,26.00
2010,04,04,03,51,19.90
2010,04,04,03,52,16.40
2010,04,04,03,53,14.10
2010,04,04,03,54,14.70
2010,04,04,03,55,13.40
2010,04,04,03,56,16.80
2010,04,04,03,57,13.90
2010,04,04,03,58,15.40
2010,04,04,03,59,14.90
2010,04,04,04,00,13.20
2010,04,04,04,01,17.10
2010,04,04,04,02,12.50
2010,04,04,04,03,14.60
2010,04,04,04,04,14.70
2010,04,04,04,05,15.80
2010,04,04,04,06,18.90
2010,04,04,04,07,21.20
2010,04,04,04,08,13.10
2010,04,04,04,09,16.50
2010,04,04,04,10,13.50
2010,04,04,04,11,12.70
2010,04,04,04,12,14.10
2010,04,04,04,13,15.80
2010,04,04,04,14,16.70
2010,04,04,04,15,10.50
2010,04,04,04,16,16.40
2010,04,04,04,17,14.50
2010,04,04,04,18,13.60
2010,04,04,04,19,21.20
2010,04,04,04,20,15.30
2010,04,04,04,21,22.70
2010,04,04,04,22,17.80
2010,04,04,04,23,18.60
2010,04,04,04,24,19.80
2010,04,04,04,25,20.10
2010,04,04,04,26,21.90
2010,04,04,04,27,22.40
2010,04,04,04,28,27.40
2010,04,04,04,29,22.70
2010,04,04,04,30,18.70
2010,04,04,04,31,15.10
2010,04,04,04,32,20.30
2010,04,04,04,33,20.60
2010,04,04,04,34,15.20
2010,04,04,04,35,18.20
2010,04,04,04,36,21.30
2010,04,04,04,37,16.70
2010,04,04,04,38,19.00
2010,04,04,04,39,14.60
2010,04,04,04,40,15.20
2010,04,04,04,41,11.50
2010,04,04,04,42,19.60
2010,04,04,04,43,16.90
2010,04,04,04,44,14.10
2010,04,04,04,45,9.80
2010,04,04,04,46,14.70
2010,04,04,04,47,22.60
2010,04,04,04,48,25.20
2010,04,04,04,49,22.10
2010,04,04,04,50,20.20
2010,04,04,04,51,21.40
2010,04,04,04,52,18.00
2010,04,04,04,53,19.70
2010,04,04,04,54,22.70
2010,04,04,04,55,25.30
2010,04,04,04,56,27.40
2010,04,04,04,57,20.00
2010,04,04,04,58,17.30
2010,04,04,04,59,20.40
2010,04,04,05,00,18.40
2010,04,04,05,01,17.50
2010,04,04,05,02,16.80
2010,04,04,05,03,16.70
2010,04,04,05,04,16.90
2010,04,04,05,05,22.40
2010,04,04,05,06,21.60
2010,04,04,05,07,20.00
2010,04,04,05,08,24.80
2010,04,04,05,09,18.00
2010,04,04,05,10,28.90
2010,04,04,05,11,23.60
2010,04,04,05,12,18.90
2010,04,04,05,13,18.00
2010,04,04,05,14,17.80
2010,04,04,05,15,22.00
2010,04,04,05,16,24.70
2010,04,04,05,17,26.80
2010,04,04,05,18,20.80
2010,04,04,05,19,27.90
2010,04,04,05,20,26.20
2010,04,04,05,21,21.10
2010,04,04,05,22,20.50
2010,04,04,05,23,21.30
2010,04,04,05,24,23.10
2010,04,04,05,25,22.20
2010,04,04,05,26,17.30
2010,04,04,05,27,30.30
2010,04,04,05,28,23.60
2010,04,04,05,29,17.60
2010,04,04,05,30,19.20
2010,04,04,05,31,28.40
2010,04,04,05,32,26.30
2010,04,04,05,33,17.80
2010,04,04,05,34,14.10
2010,04,04,05,35,15.40
2010,04,04,05,36,19.60
2010,04,04,05,37,23.50
2010,04,04,05,38,22.10
2010,04,04,05,39,17.30
2010,04,04,05,40,24.00
2010,04,04,05,41,22.50
2010,04,04,05,42,25.20
2010,04,04,05,43,23.20
2010,04,04,05,44,23.90
2010,04,04,05,45,17.70
2010,04,04,05,46,19.90
2010,04,04,05,47,19.20
2010,04,04,05,48,23.60
2010,04,04,05,49,15.00
2010,04,04,05,50,11.80
2010,04,04,05,51,15.90
2010,04,04,05,52,20.00
2010,04,04,05,53,24.50
2010,04,04,05,54,18.30
2010,04,04,05,55,20.10
2010,04,04,05,56,17.60
2010,04,04,05,57,18.50
2010,04,04,05,58,17.60
2010,04,04,05,59,21.50
2010,04,04,06,00,17.60
2010,04,04,06,01,14.00
2010,04,04,06,02,10.40
2010,04,04,06,03,9.10
2010,04,04,06,04,14.10
2010,04,04,06,05,17.70
2010,04,04,06,06,18.30
2010,04,04,06,07,16.90
2010,04,04,06,08,17.80
2010,04,04,06,09,19.60
2010,04,04,06,10,21.40
2010,04,04,06,11,21.20
2010,04,04,06,12,21.30
2010,04,04,06,13,23.20
2010,04,04,06,14,26.80
2010,04,04,06,15,24.10
2010,04,04,06,16,26.80
2010,04,04,06,17,11.90
2010,04,04,06,18,10.00
2010,04,04,06,19,13.40
2010,04,04,06,20,21.00
2010,04,04,06,21,28.30
2010,04,04,06,22,22.70
2010,04,04,06,23,19.70
2010,04,04,06,24,27.10
2010,04,04,06,25,26.00
2010,04,04,06,26,25.10
2010,04,04,06,27,25.10
2010,04,04,06,28,22.40
2010,04,04,06,29,19.90
2010,04,04,06,30,17.70
2010,04,04,06,31,18.60
2010,04,04,06,32,16.40
2010,04,04,06,33,17.50
2010,04,04,06,34,23.30
2010,04,04,06,35,26.20
2010,04,04,06,36,25.10
2010,04,04,06,37,23.90
2010,04,04,06,38,18.70
2010,04,04,06,39,22.40
2010,04,04,06,40,19.80
2010,04,04,06,41,24.70
2010,04,04,06,42,15.70
2010,04,04,06,43,15.10
2010,04,04,06,44,20.80
2010,04,04,06,45,14.10
2010,04,04,06,46,19.70
2010,04,04,06,47,17.40
2010,04,04,06,48,22.30
2010,04,04,06,49,16.60
2010,04,04,06,50,18.20
2010,04,04,06,51,17.20
2010,04,04,06,52,10.10
2010,04,04,06,53,13.20
2010,04,04,06,54,17.70
2010,04,04,06,55,15.50
2010,04,04,06,56,6.50
2010,04,04,06,57,12.90
2010,04,04,06,58,18.70
2010,04,04,06,59,18.40
2010,04,04,07,00,23.10
2010,04,04,07,01,18.80
2010,04,04,07,02,22.70
2010,04,04,07,03,15.60
2010,04,04,07,04,17.20
2010,04,04,07,05,18.30
2010,04,04,07,06,21.80
2010,04,04,07,07,15.30
2010,04,04,07,08,17.50
2010,04,04,07,09,19.00
2010,04,04,07,10,20.60
2010,04,04,07,11,19.50
2010,04,04,07,12,21.70
2010,04,04,07,13,22.70
2010,04,04,07,14,17.80
2010,04,04,07,15,23.80
2010,04,04,07,16,22.70
2010,04,04,07,17,16.60
2010,04,04,07,18,24.00
2010,04,04,07,19,18.70
2010,04,04,07,20,16.90
2010,04,04,07,21,18.80
2010,04,04,07,22,23.80
2010,04,04,07,23,20.20
2010,04,04,07,24,18.70
2010,04,04,07,25,18.90
2010,04,04,07,26,19.00
2010,04,04,07,27,18.50
2010,04,04,07,28,17.40
2010,04,04,07,29,19.40
2010,04,04,07,30,15.70
2010,04,04,07,31,19.20
2010,04,04,07,32,18.20
2010,04,04,07,33,20.20
2010,04,04,07,34,16.40
2010,04,04,07,35,20.10
2010,04,04,07,36,20.50
2010,04,04,07,37,11.80
2010,04,04,07,38,14.80
2010,04,04,07,39,16.60
2010,04,04,07,40,17.50
2010,04,04,07,41,13.30
2010,04,04,07,42,14.10
2010,04,04,07,43,26.80
2010,04,04,07,44,18.20
2010,04,04,07,45,17.60
2010,04,04,07,46,16.50
2010,04,04,07,47,17.00
2010,04,04,07,48,13.90
2010,04,04,07,49,18.30
2010,04,04,07,50,24.10
2010,04,04,07,51,17.00
2010,04,04,07,52,20.40
2010,04,04,07,53,24.70
2010,04,04,07,54,21.80
2010,04,04,07,55,20.40
2010,04,04,07,56,14.70
2010,04,04,07,57,23.50
2010,04,04,07,58,12.10
2010,04,04,07,59,13.60
2010,04,04,08,00,12.60
2010,04,04,08,01,13.70
2010,04,04,08,02,14.90
2010,04,04,08,03,17.00
2010,04,04,08,04,21.50
2010,04,04,08,05,22.20
2010,04,04,08,06,16.40
2010,04,04,08,07,20.90
2010,04,04,08,08,24.00
2010,04,04,08,09,16.80
2010,04,04,08,10,14.20
2010,04,04,08,11,25.50
2010,04,04,08,12,21.20
2010,04,04,08,13,14.50
2010,04,04,08,14,16.60
2010,04,04,08,15,17.90
2010,04,04,08,16,21.30
2010,04,04,08,17,14.70
2010,04,04,08,18,17.30
2010,04,04,08,19,22.80
2010,04,04,08,20,19.50
2010,04,04,08,21,14.70
2010,04,04,08,22,18.50
2010,04,04,08,23,10.60
2010,04,04,08,24,9.50
2010,04,04,08,25,11.70
2010,04,04,08,26,11.60
2010,04,04,08,27,15.10
2010,04,04,08,28,20.20
2010,04,04,08,29,15.70
2010,04,04,08,30,22.50
2010,04,04,08,31,17.60
2010,04,04,08,32,24.60
2010,04,04,08,33,12.20
2010,04,04,08,34,19.80
2010,04,04,08,35,15.40
2010,04,04,08,36,15.70
2010,04,04,08,37,18.60
2010,04,04,08,38,18.60
2010,04,04,08,39,20.60
2010,04,04,08,40,21.40
2010,04,04,08,41,28.40
2010,04,04,08,42,16.60
2010,04,04,08,43,14.30
2010,04,04,08,44,13.50
2010,04,04,08,45,13.00
2010,04,04,08,46,20.80
2010,04,04,08,47,17.60
2010,04,04,08,48,16.00
2010,04,04,08,49,18.40
2010,04,04,08,50,18.70
2010,04,04,08,51,16.50
2010,04,04,08,52,18.20
2010,04,04,08,53,20.20
2010,04,04,08,54,23.90
2010,04,04,08,55,21.50
2010,04,04,08,56,18.50
2010,04,04,08,57,23.70
2010,04,04,08,58,22.70
2010,04,04,08,59,26.60
2010,04,04,09,00,18.50
2010,04,04,09,01,27.60
2010,04,04,09,02,25.10
2010,04,04,09,03,29.90
2010,04,04,09,04,21.90
2010,04,04,09,05,16.80
2010,04,04,09,06,17.20
2010,04,04,09,07,13.90
2010,04,04,09,08,18.10
2010,04,04,09,09,26.70
2010,04,04,09,10,22.10
2010,04,04,09,11,18.60
2010,04,04,09,12,21.50
2010,04,04,09,13,19.10
2010,04,04,09,14,19.60
2010,04,04,09,15,22.10
2010,04,04,09,16,20.30
2010,04,04,09,17,19.30
2010,04,04,09,18,18.20
2010,04,04,09,19,19.30
2010,04,04,09,20,20.80
2010,04,04,09,21,18.70
2010,04,04,09,22,14.80
2010,04,04,09,23,20.70
2010,04,04,09,24,18.50
2010,04,04,09,25,22.90
2010,04,04,09,26,25.00
2010,04,04,09,27,19.00
2010,04,04,09,28,18.00
2010,04,04,09,29,16.20
2010,04,04,09,30,23.20
2010,04,04,09,31,18.20
2010,04,04,09,32,26.80
2010,04,04,09,33,25.30
2010,04,04,09,34,20.00
2010,04,04,09,35,25.20
2010,04,04,09,36,21.80
2010,04,04,09,37,17.20
2010,04,04,09,38,20.90
2010,04,04,09,39,24.40
2010,04,04,09,40,26.60
2010,04,04,09,41,15.70
2010,04,04,09,42,19.10
2010,04,04,09,43,19.10
2010,04,04,09,44,23.10
2010,04,04,09,45,25.60
2010,04,04,09,46,14.80
2010,04,04,09,47,13.70
2010,04,04,09,48,20.90
2010,04,04,09,49,18.80
2010,04,04,09,50,19.20
2010,04,04,09,51,27.20
2010,04,04,09,52,21.90
2010,04,04,09,53,27.90
2010,04,04,09,54,16.20
2010,04,04,09,55,20.00
2010,04,04,09,56,19.40
2010,04,04,09,57,16.40
2010,04,04,09,58,16.20
2010,04,04,09,59,25.40
2010,04,04,10,00,23.30
2010,04,04,10,01,13.60
2010,04,04,10,02,32.30
2010,04,04,10,03,20.40
2010,04,04,10,04,29.60
2010,04,04,10,05,21.20
2010,04,04,10,06,15.90
2010,04,04,10,07,24.40
2010,04,04,10,08,19.10
2010,04,04,10,09,30.90
2010,04,04,10,10,20.30
2010,04,04,10,11,17.80
2010,04,04,10,12,23.20
2010,04,04,10,13,20.70
2010,04,04,10,14,23.20
2010,04,04,10,15,25.00
2010,04,04,10,16,20.30
2010,04,04,10,17,24.00
2010,04,04,10,18,27.60
2010,04,04,10,19,23.50
2010,04,04,10,20,25.80
2010,04,04,10,21,24.50
2010,04,04,10,22,24.60
2010,04,04,10,23,29.20
2010,04,04,10,24,20.50
2010,04,04,10,25,19.00
2010,04,04,10,26,25.30
2010,04,04,10,27,26.90
2010,04,04,10,28,22.00
2010,04,04,10,29,19.40
2010,04,04,10,30,16.10
2010,04,04,10,31,14.30
2010,04,04,10,32,18.40
2010,04,04,10,33,26.30
2010,04,04,10,34,22.50
2010,04,04,10,35,23.70
2010,04,04,10,36,22.50
2010,04,04,10,37,29.50
2010,04,04,10,38,26.00
2010,04,04,10,39,28.10
2010,04,04,10,40,22.30
2010,04,04,10,41,25.50
2010,04,04,10,42,26.10
2010,04,04,10,43,25.30
2010,04,04,10,44,20.00
2010,04,04,10,45,19.40
2010,04,04,10,46,18.60
2010,04,04,10,47,21.70
2010,04,04,10,48,20.20
2010,04,04,10,49,20.60
2010,04,04,10,50,22.50
2010,04,04,10,51,22.00
2010,04,04,10,52,30.30
2010,04,04,10,53,24.60
2010,04,04,10,54,19.90
2010,04,04,10,55,12.30
2010,04,04,10,56,12.40
2010,04,04,10,57,21.50
2010,04,04,10,58,13.90
2010,04,04,10,59,21.50
2010,04,04,11,00,25.80
2010,04,04,11,01,29.70
2010,04,04,11,02,20.50
2010,04,04,11,03,27.00
2010,04,04,11,04,27.10
2010,04,04,11,05,29.00
2010,04,04,11,06,25.50
2010,04,04,11,07,27.60
2010,04,04,11,08,25.40
2010,04,04,11,09,24.50
2010,04,04,11,10,18.70
2010,04,04,11,11,25.10
2010,04,04,11,12,20.60
2010,04,04,11,13,28.10
2010,04,04,11,14,29.70
2010,04,04,11,15,22.70
2010,04,04,11,16,22.70
2010,04,04,11,17,21.10
2010,04,04,11,18,23.00
2010,04,04,11,19,21.00
2010,04,04,11,20,18.30
2010,04,04,11,21,11.90
2010,04,04,11,22,14.40
2010,04,04,11,23,18.70
2010,04,04,11,24,18.40
2010,04,04,11,25,24.40
2010,04,04,11,26,26.20
2010,04,04,11,27,26.10
2010,04,04,11,28,25.20
2010,04,04,11,29,22.80
2010,04,04,11,30,28.00
2010,04,04,11,31,20.50
2010,04,04,11,32,20.60
2010,04,04,11,33,17.80
2010,04,04,11,34,21.80
2010,04,04,11,35,25.60
2010,04,04,11,36,25.30
2010,04,04,11,37,20.00
2010,04,04,11,38,21.20
2010,04,04,11,39,21.90
2010,04,04,11,40,20.80
2010,04,04,11,41,18.80
2010,04,04,11,42,16.70
2010,04,04,11,43,17.80
2010,04,04,11,44,18.10
2010,04,04,11,45,17.80
2010,04,04,11,46,20.00
2010,04,04,11,47,11.90
2010,04,04,11,48,19.20
2010,04,04,11,49,26.70
2010,04,04,11,50,23.30
2010,04,04,11,51,19.60
2010,04,04,11,52,22.70
2010,04,04,11,53,21.10
2010,04,04,11,54,20.90
2010,04,04,11,55,24.30
2010,04,04,11,56,21.30
2010,04,04,11,57,21.10
2010,04,04,11,58,18.10
2010,04,04,11,59,25.00
2010,04,04,12,00,19.70
2010,04,04,12,01,19.50
2010,04,04,12,02,21.10
2010,04,04,12,03,16.70
2010,04,04,12,04,16.80
2010,04,04,12,05,16.30
2010,04,04,12,06,20.80
2010,04,04,12,07,15.90
2010,04,04,12,08,17.30
2010,04,04,12,09,15.00
2010,04,04,12,10,15.40
2010,04,04,12,11,13.80
2010,04,04,12,12,10.00
2010,04,04,12,13,16.70
2010,04,04,12,14,23.20
2010,04,04,12,15,12.20
2010,04,04,12,16,16.10
2010,04,04,12,17,16.60
2010,04,04,12,18,16.90
2010,04,04,12,19,16.10
2010,04,04,12,20,18.90
2010,04,04,12,21,14.90
2010,04,04,12,22,14.10
2010,04,04,12,23,11.70
2010,04,04,12,24,19.80
2010,04,04,12,25,13.40
2010,04,04,12,26,18.40
2010,04,04,12,27,19.50
2010,04,04,12,28,13.60
2010,04,04,12,29,9.00
2010,04,04,12,30,20.20
2010,04,04,12,31,21.00
2010,04,04,12,32,17.40
2010,04,04,12,33,8.90
2010,04,04,12,34,13.70
2010,04,04,12,35,12.10
2010,04,04,12,36,14.10
2010,04,04,12,37,12.20
2010,04,04,12,38,14.00
2010,04,04,12,39,13.90
2010,04,04,12,40,17.70
2010,04,04,12,41,18.60
2010,04,04,12,42,14.30
2010,04,04,12,43,11.60
2010,04,04,12,44,20.40
2010,04,04,12,45,15.00
2010,04,04,12,46,17.20
2010,04,04,12,47,15.70
2010,04,04,12,48,19.20
2010,04,04,12,49,14.30
2010,04,04,12,50,18.60
2010,04,04,12,51,20.90
2010,04,04,12,52,18.10
2010,04,04,12,53,14.70
2010,04,04,12,54,12.00
2010,04,04,12,55,15.40
2010,04,04,12,56,16.60
2010,04,04,12,57,16.30
2010,04,04,12,58,10.10
2010,04,04,12,59,14.80
2010,04,04,13,00,17.20
2010,04,04,13,01,17.60
2010,04,04,13,02,15.00
2010,04,04,13,03,12.50
2010,04,04,13,04,16.90
2010,04,04,13,05,16.00
2010,04,04,13,06,10.80
2010,04,04,13,07,13.50
2010,04,04,13,08,13.40
2010,04,04,13,09,10.60
2010,04,04,13,10,14.60
2010,04,04,13,11,13.90
2010,04,04,13,12,10.50
2010,04,04,13,13,11.30
2010,04,04,13,14,10.40
2010,04,04,13,15,13.30
2010,04,04,13,16,14.10
2010,04,04,13,17,10.70
2010,04,04,13,18,7.60
2010,04,04,13,19,8.90
2010,04,04,13,20,11.20
2010,04,04,13,21,18.10
2010,04,04,13,22,19.10
2010,04,04,13,23,18.80
2010,04,04,13,24,16.30
2010,04,04,13,25,8.60
2010,04,04,13,26,9.40
2010,04,04,13,27,16.70
2010,04,04,13,28,17.40
2010,04,04,13,29,15.60
2010,04,04,13,30,18.60
2010,04,04,13,31,18.60
2010,04,04,13,32,14.50
2010,04,04,13,33,17.10
2010,04,04,13,34,16.40
2010,04,04,13,35,16.70
2010,04,04,13,36,15.30
2010,04,04,13,37,12.60
2010,04,04,13,38,15.10
2010,04,04,13,39,12.00
2010,04,04,13,40,14.50
2010,04,04,13,41,12.70
2010,04,04,13,42,16.20
2010,04,04,13,43,21.30
2010,04,04,13,44,18.40
2010,04,04,13,45,14.80
2010,04,04,13,46,19.20
2010,04,04,13,47,15.20
2010,04,04,13,48,17.40
2010,04,04,13,49,13.20
2010,04,04,13,50,18.00
2010,04,04,13,51,20.30
2010,04,04,13,52,17.20
2010,04,04,13,53,24.30
2010,04,04,13,54,16.10
2010,04,04,13,55,13.40
2010,04,04,13,56,14.10
2010,04,04,13,57,22.30
2010,04,04,13,58,11.20
2010,04,04,13,59,11.40
2010,04,04,14,00,14.90
2010,04,04,14,01,14.80
2010,04,04,14,02,9.40
2010,04,04,14,03,16.90
2010,04,04,14,04,14.50
2010,04,04,14,05,15.20
2010,04,04,14,06,20.40
2010,04,04,14,07,19.00
2010,04,04,14,08,19.10
2010,04,04,14,09,21.40
2010,04,04,14,10,19.40
2010,04,04,14,11,20.80
2010,04,04,14,12,21.40
2010,04,04,14,13,23.30
2010,04,04,14,14,20.90
2010,04,04,14,15,22.10
2010,04,04,14,16,18.00
2010,04,04,14,17,19.90
2010,04,04,14,18,20.10
2010,04,04,14,19,17.30
2010,04,04,14,20,21.50
2010,04,04,14,21,20.90
2010,04,04,14,22,19.20
2010,04,04,14,23,18.50
2010,04,04,14,24,19.20
2010,04,04,14,25,21.70
2010,04,04,14,26,13.20
2010,04,04,14,27,13.70
2010,04,04,14,28,21.90
2010,04,04,14,29,19.20
2010,04,04,14,30,15.20
2010,04,04,14,31,17.10
2010,04,04,14,32,17.50
2010,04,04,14,33,15.30
2010,04,04,14,34,21.70
2010,04,04,14,35,16.90
2010,04,04,14,36,14.10
2010,04,04,14,37,14.70
2010,04,04,14,38,14.80
2010,04,04,14,39,17.60
2010,04,04,14,40,19.80
2010,04,04,14,41,23.40
2010,04,04,14,42,19.00
2010,04,04,14,43,20.60
2010,04,04,14,44,18.20
2010,04,04,14,45,18.00
2010,04,04,14,46,17.40
2010,04,04,14,47,23.00
2010,04,04,14,48,18.10
2010,04,04,14,49,18.80
2010,04,04,14,50,24.80
2010,04,04,14,51,25.60
2010,04,04,14,52,21.40
2010,04,04,14,53,17.80
2010,04,04,14,54,19.20
2010,04,04,14,55,14.90
2010,04,04,14,56,14.00
2010,04,04,14,57,13.50
2010,04,04,14,58,16.30
2010,04,04,14,59,15.20
2010,04,04,15,00,22.60
2010,04,04,15,01,22.30
2010,04,04,15,02,19.80
2010,04,04,15,03,21.30
2010,04,04,15,04,19.20
2010,04,04,15,05,15.30
2010,04,04,15,06,13.70
2010,04,04,15,07,22.60
2010,04,04,15,08,19.10
2010,04,04,15,09,22.20
2010,04,04,15,10,21.10
2010,04,04,15,11,21.80
2010,04,04,15,12,22.00
2010,04,04,15,13,7.80
2010,04,04,15,14,17.20
2010,04,04,15,15,19.90
2010,04,04,15,16,25.70
2010,04,04,15,17,19.00
2010,04,04,15,18,18.10
2010,04,04,15,19,17.90
2010,04,04,15,20,17.60
2010,04,04,15,21,19.80
2010,04,04,15,22,20.00
2010,04,04,15,23,25.80
2010,04,04,15,24,21.70
2010,04,04,15,25,27.10
2010,04,04,15,26,18.70
2010,04,04,15,27,21.30
2010,04,04,15,28,19.10
2010,04,04,15,29,15.80
2010,04,04,15,30,19.20
2010,04,04,15,31,22.20
2010,04,04,15,32,24.20
2010,04,04,15,33,18.80
2010,04,04,15,34,21.50
2010,04,04,15,35,15.30
2010,04,04,15,36,23.20
2010,04,04,15,37,29.00
2010,04,04,15,38,24.10
2010,04,04,15,39,20.70
2010,04,04,15,40,16.90
2010,04,04,15,41,17.60
2010,04,04,15,42,22.90
2010,04,04,15,43,21.90
2010,04,04,15,44,24.20
2010,04,04,15,45,20.30
2010,04,04,15,46,22.90
2010,04,04,15,47,26.00
2010,04,04,15,48,29.30
2010,04,04,15,49,19.00
2010,04,04,15,50,25.50
2010,04,04,15,51,29.20
2010,04,04,15,52,23.20
2010,04,04,15,53,26.40
2010,04,04,15,54,16.00
2010,04,04,15,55,24.70
2010,04,04,15,56,24.10
2010,04,04,15,57,23.00
2010,04,04,15,58,18.30
2010,04,04,15,59,22.20
2010,04,04,16,00,23.30
2010,04,04,16,01,19.70
2010,04,04,16,02,26.30
2010,04,04,16,03,25.80
2010,04,04,16,04,22.80
2010,04,04,16,05,25.70
2010,04,04,16,06,24.80
2010,04,04,16,07,24.60
2010,04,04,16,08,24.50
2010,04,04,16,09,23.40
2010,04,04,16,10,20.50
2010,04,04,16,11,25.50
2010,04,04,16,12,26.90
2010,04,04,16,13,28.70
2010,04,04,16,14,26.00
2010,04,04,16,15,20.30
2010,04,04,16,16,26.70
2010,04,04,16,17,24.10
2010,04,04,16,18,26.60
2010,04,04,16,19,29.30
2010,04,04,16,20,23.20
2010,04,04,16,21,20.30
2010,04,04,16,22,21.90
2010,04,04,16,23,28.20
2010,04,04,16,24,25.00
2010,04,04,16,25,20.50
2010,04,04,16,26,13.10
2010,04,04,16,27,17.10
2010,04,04,16,28,17.40
2010,04,04,16,29,19.10
2010,04,04,16,30,20.50
2010,04,04,16,31,19.20
2010,04,04,16,32,20.30
2010,04,04,16,33,22.50
2010,04,04,16,34,21.90
2010,04,04,16,35,21.40
2010,04,04,16,36,16.60
2010,04,04,16,37,21.80
2010,04,04,16,38,21.60
2010,04,04,16,39,19.60
2010,04,04,16,40,19.50
2010,04,04,16,41,14.20
2010,04,04,16,42,17.60
2010,04,04,16,43,16.00
2010,04,04,16,44,18.90
2010,04,04,16,45,20.20
2010,04,04,16,46,23.00
2010,04,04,16,47,17.70
2010,04,04,16,48,20.80
2010,04,04,16,49,18.80
2010,04,04,16,50,16.10
2010,04,04,16,51,16.00
2010,04,04,16,52,18.00
2010,04,04,16,53,14.20
2010,04,04,16,54,18.80
2010,04,04,16,55,17.90
2010,04,04,16,56,18.30
2010,04,04,16,57,19.90
2010,04,04,16,58,23.20
2010,04,04,16,59,22.40
2010,04,04,17,00,16.90
2010,04,04,17,01,17.80
2010,04,04,17,02,10.30
2010,04,04,17,03,13.50
2010,04,04,17,04,15.60
2010,04,04,17,05,14.30
2010,04,04,17,06,15.90
2010,04,04,17,07,12.60
2010,04,04,17,08,9.90
2010,04,04,17,09,8.80
2010,04,04,17,10,8.30
2010,04,04,17,11,10.00
2010,04,04,17,12,13.20
2010,04,04,17,13,10.30
2010,04,04,17,14,17.70
2010,04,04,17,15,15.30
2010,04,04,17,16,14.80
2010,04,04,17,17,19.50
2010,04,04,17,18,15.70
2010,04,04,17,19,8.70
2010,04,04,17,20,8.00
2010,04,04,17,21,13.40